TimeEEST,TemperatureF,Dew PointF,Humidity,Sea Level PressureIn,VisibilityMPH,Wind Direction,Wind SpeedMPH,Gust SpeedMPH,PrecipitationIn,Events,Conditions,WindDirDegrees,DateUTC
12:20 AM,69.8,55.4,60,30.18,6.2,NE,5.8,-,N/A,,Scattered Clouds,50,2013-09-08 21:20:00
12:50 AM,69.8,55.4,60,30.18,6.2,ENE,5.8,-,N/A,,Scattered Clouds,60,2013-09-08 21:50:00
1:20 AM,69.8,55.4,60,30.18,6.2,NE,5.8,-,N/A,,Scattered Clouds,50,2013-09-08 22:20:00
1:50 AM,68.0,53.6,60,30.18,6.2,Variable,2.3,-,N/A,,Partly Cloudy,0,2013-09-08 22:50:00
2:20 AM,66.2,53.6,64,30.15,-9999.0,NNW,4.6,-,N/A,,Clear,340,2013-09-08 23:20:00
2:50 AM,64.4,53.6,68,30.15,-9999.0,North,5.8,-,N/A,,Clear,350,2013-09-08 23:50:00
3:00 AM,64,54,61,30.17,6,North,5.8,,,,,350,2013-09-09 00:00:00
3:20 AM,64.4,55.4,73,30.15,-9999.0,North,5.8,-,N/A,,Clear,350,2013-09-09 00:20:00
3:50 AM,64.4,53.6,68,30.15,-9999.0,North,4.6,-,N/A,,Clear,360,2013-09-09 00:50:00
4:20 AM,68.0,55.4,64,30.15,6.2,ENE,3.5,-,N/A,,Partly Cloudy,70,2013-09-09 01:20:00
4:50 AM,68.0,55.4,64,30.15,6.2,ENE,5.8,-,N/A,,Scattered Clouds,60,2013-09-09 01:50:00
5:20 AM,68.0,55.4,64,30.15,6.2,NE,6.9,-,N/A,,Scattered Clouds,50,2013-09-09 02:20:00
5:50 AM,68.0,55.4,64,30.15,6.2,NE,8.1,-,N/A,,Scattered Clouds,50,2013-09-09 02:50:00
6:20 AM,68.0,55.4,64,30.15,6.2,NE,5.8,-,N/A,,Scattered Clouds,40,2013-09-09 03:20:00
6:50 AM,68.0,55.4,64,30.15,6.2,East,3.5,-,N/A,,Scattered Clouds,90,2013-09-09 03:50:00
7:20 AM,68.0,55.4,64,30.18,6.2,NE,5.8,-,N/A,,Partly Cloudy,50,2013-09-09 04:20:00
7:50 AM,69.8,53.6,56,30.18,6.2,ENE,5.8,-,N/A,,Partly Cloudy,60,2013-09-09 04:50:00
8:20 AM,71.6,53.6,53,30.18,6.2,NE,4.6,-,N/A,,Partly Cloudy,50,2013-09-09 05:20:00
8:50 AM,71.6,50.0,46,30.18,6.2,NE,8.1,-,N/A,,Partly Cloudy,50,2013-09-09 05:50:00
9:00 AM,71,51,37,30.19,6,NE,8.1,,,,Scattered Clouds,50,2013-09-09 06:00:00
9:20 AM,71.6,50.0,46,30.18,6.2,East,10.4,-,N/A,,Partly Cloudy,80,2013-09-09 06:20:00
9:50 AM,73.4,48.2,41,30.18,6.2,ENE,10.4,-,N/A,,Scattered Clouds,60,2013-09-09 06:50:00
10:20 AM,75.2,48.2,38,30.18,6.2,ENE,10.4,-,N/A,,Scattered Clouds,70,2013-09-09 07:20:00
10:50 AM,73.4,46.4,38,30.18,6.2,ENE,8.1,-,N/A,,Scattered Clouds,60,2013-09-09 07:50:00
11:20 AM,75.2,44.6,34,30.18,6.2,ENE,11.5,-,N/A,,Scattered Clouds,70,2013-09-09 08:20:00
11:50 AM,77.0,42.8,29,30.18,6.2,ENE,9.2,-,N/A,,Scattered Clouds,70,2013-09-09 08:50:00
12:20 PM,75.2,42.8,31,30.18,6.2,NNE,10.4,-,N/A,,Scattered Clouds,20,2013-09-09 09:20:00
12:50 PM,77.0,41.0,28,30.18,6.2,NE,11.5,-,N/A,,Partly Cloudy,40,2013-09-09 09:50:00
1:20 PM,77.0,44.6,32,30.18,6.2,NNE,9.2,-,N/A,,Partly Cloudy,20,2013-09-09 10:20:00
1:50 PM,78.8,42.8,28,30.15,6.2,Variable,9.2,21.9,N/A,,Partly Cloudy,0,2013-09-09 10:50:00
2:20 PM,77.0,44.6,32,30.15,6.2,Variable,9.2,-,N/A,,Partly Cloudy,0,2013-09-09 11:20:00
2:50 PM,78.8,44.6,30,30.15,6.2,NE,9.2,-,N/A,,Partly Cloudy,40,2013-09-09 11:50:00
3:00 PM,78,45,20,30.15,6,NE,9.2,,,,Scattered Clouds,40,2013-09-09 12:00:00
3:20 PM,78.8,44.6,30,30.15,6.2,Variable,10.4,-,N/A,,Partly Cloudy,0,2013-09-09 12:20:00
3:50 PM,78.8,46.4,32,30.15,6.2,North,11.5,-,N/A,,Partly Cloudy,10,2013-09-09 12:50:00
4:20 PM,78.8,46.4,32,30.12,-9999.0,North,9.2,-,N/A,,Clear,360,2013-09-09 13:20:00
4:50 PM,77.0,46.4,34,30.12,-9999.0,NNE,10.4,-,N/A,,Clear,30,2013-09-09 13:50:00
5:20 PM,77.0,46.4,34,30.12,-9999.0,NNE,10.4,-,N/A,,Clear,20,2013-09-09 14:20:00
5:50 PM,77.0,46.4,34,30.12,-9999.0,NNE,11.5,-,N/A,,Clear,20,2013-09-09 14:50:00
6:20 PM,75.2,48.2,38,30.12,-9999.0,NNE,10.4,-,N/A,,Clear,30,2013-09-09 15:20:00
6:50 PM,73.4,48.2,41,30.12,-9999.0,NE,10.4,-,N/A,,Clear,50,2013-09-09 15:50:00
7:20 PM,73.4,51.8,47,30.12,-9999.0,NNE,10.4,-,N/A,,Clear,30,2013-09-09 16:20:00
7:50 PM,71.6,50.0,46,30.12,-9999.0,NE,9.2,-,N/A,,Clear,50,2013-09-09 16:50:00
8:20 PM,71.6,50.0,46,30.15,-9999.0,Variable,10.4,-,N/A,,Clear,0,2013-09-09 17:20:00
8:50 PM,73.4,50.0,44,30.15,-9999.0,East,9.2,-,N/A,,Clear,80,2013-09-09 17:50:00
9:00 PM,73,50,33,30.15,6,East,9.2,,,,,80,2013-09-09 18:00:00
9:20 PM,71.6,50.0,46,30.15,-9999.0,ENE,10.4,-,N/A,,Clear,70,2013-09-09 18:20:00
9:50 PM,69.8,51.8,53,30.15,-9999.0,East,9.2,-,N/A,,Clear,80,2013-09-09 18:50:00
10:20 PM,69.8,51.8,53,30.15,-9999.0,ENE,9.2,-,N/A,,Clear,70,2013-09-09 19:20:00
10:50 PM,68.0,51.8,56,30.15,-9999.0,ENE,6.9,-,N/A,,Clear,70,2013-09-09 19:50:00
11:20 PM,69.8,51.8,53,30.15,-9999.0,East,10.4,-,N/A,,Clear,80,2013-09-09 20:20:00
11:50 PM,68.0,51.8,56,30.12,-9999.0,East,9.2,-,N/A,,Clear,80,2013-09-09 20:50:00